| time (UTC) | temp C | wind direction | speed KPH | gust KPH | rain 1hr cm | rain 24hr cm | rain mn cm | humidity % | barometer mb |
| 20260505230024 | 12 | 160 | 1.6 | 9.7 | 0.00 | 0.00 | 0.00 | 70 | 1008.4 |
| 20260505224517 | 12 | 153 | 1.6 | 14.5 | 0.00 | 0.00 | 0.00 | 69 | 1008.0 |
| 20260505223014 | 12 | 171 | 1.6 | 8.0 | 0.00 | 0.00 | 0.00 | 68 | 1007.9 |
| 20260505221520 | 12 | 167 | 0.0 | 11.3 | 0.00 | 0.00 | 0.00 | 68 | 1007.5 |
| 20260505220023 | 12 | 148 | 1.6 | 20.9 | 0.00 | 0.00 | 0.00 | 70 | 1007.3 |
| 20260505214518 | 12 | 171 | 3.2 | 20.9 | 0.00 | 0.00 | 0.00 | 71 | 1007.6 |
| 20260505213027 | 12 | 146 | 0.0 | 9.7 | 0.00 | 0.00 | 0.00 | 72 | 1007.5 |
| 20260505211515 | 12 | 167 | 1.6 | 12.9 | 0.00 | 0.00 | 0.00 | 72 | 1007.5 |
| 20260505210015 | 12 | 90 | 1.6 | 11.3 | 0.00 | 0.00 | 0.00 | 72 | 1006.9 |
| 20260505204513 | 12 | 145 | 0.0 | 17.7 | 0.00 | 0.00 | 0.00 | 75 | 1006.9 |
| 20260505203014 | 12 | 172 | 1.6 | 11.3 | 0.00 | 0.00 | 0.00 | 75 | 1007.3 |
| 20260505201512 | 12 | 137 | 1.6 | 17.7 | 0.00 | 0.00 | 0.00 | 75 | 1006.9 |
| 20260505200010 | 13 | 169 | 0.0 | 14.5 | 0.00 | 0.00 | 0.00 | 74 | 1006.8 |
| 20260505194505 | 13 | 170 | 1.6 | 9.7 | 0.00 | 0.00 | 0.00 | 76 | 1006.7 |
| 20260505193004 | 13 | 96 | 3.2 | 11.3 | 0.00 | 0.00 | 0.00 | 76 | 1006.7 |
| 20260505191501 | 13 | 152 | 3.2 | 17.7 | 0.00 | 0.00 | 0.00 | 76 | 1006.4 |
| 20260505190059 | 13 | 153 | 1.6 | 12.9 | 0.00 | 0.00 | 0.00 | 78 | 1006.3 |
| 20260505184558 | 13 | 162 | 1.6 | 12.9 | 0.00 | 0.00 | 0.00 | 78 | 1005.9 |
| 20260505183058 | 13 | 149 | 0.0 | 12.9 | 0.00 | 0.00 | 0.00 | 80 | 1006.1 |
| 20260505181555 | 13 | 169 | 0.0 | 11.3 | 0.00 | 0.00 | 0.00 | 80 | 1006.0 |
| 20260505180059 | 13 | 164 | 0.0 | 20.9 | 0.00 | 0.00 | 0.00 | 81 | 1005.9 |
| 20260505174550 | 13 | 149 | 0.0 | 9.7 | 0.00 | 0.00 | 0.00 | 82 | 1005.2 |
| 20260505173055 | 13 | 172 | 0.0 | 12.9 | 0.00 | 0.00 | 0.00 | 82 | 1005.2 |
| 20260505171548 | 13 | 169 | 0.0 | 11.3 | 0.00 | 0.00 | 0.00 | 82 | 1005.0 |
| 20260505164544 | 14 | 91 | 3.2 | 16.1 | 0.00 | 0.00 | 0.00 | 82 | 1004.5 |
| 20260505163042 | 14 | 172 | 0.0 | 24.1 | 0.00 | 0.00 | 0.00 | 82 | 1004.2 |
| 20260505161536 | 15 | 172 | 3.2 | 17.7 | 0.00 | 0.00 | 0.00 | 81 | 1004.0 |
| 20260505153024 | 18 | 154 | 1.6 | 12.9 | 0.00 | 0.00 | 0.00 | 77 | 1003.2 |
| 20260505151521 | 20 | 172 | 1.6 | 9.7 | 0.00 | 0.00 | 0.00 | 76 | 1002.7 |
| 20260505124511 | 19 | 98 | 4.8 | 14.5 | 0.00 | 0.00 | 0.00 | 80 | 1002.2 |
| 20260505123005 | 19 | 96 | 0.0 | 9.7 | 0.00 | 0.00 | 0.00 | 80 | 1002.1 |
| 20260505121508 | 19 | 91 | 1.6 | 12.9 | 0.00 | 0.00 | 0.00 | 80 | 1001.8 |
| 20260505120004 | 19 | 101 | 0.0 | 3.2 | 0.00 | 0.00 | 0.00 | 80 | 1001.9 |
| 20260505114504 | 19 | 91 | 1.6 | 8.0 | 0.00 | 0.00 | 0.00 | 80 | 1001.9 |
| 20260505113005 | 19 | 175 | 0.0 | 6.4 | 0.00 | 0.00 | 0.00 | 80 | 1001.6 |
| 20260505111601 | 19 | 172 | 1.6 | 6.4 | 0.00 | 0.00 | 0.00 | 80 | 1001.5 |
| 20260505101559 | 19 | 95 | 0.0 | 6.4 | 0.00 | 0.00 | 0.00 | 80 | 1000.7 |
| 20260505100100 | 19 | 91 | 1.6 | 8.0 | 0.00 | 0.00 | 0.00 | 79 | 1000.6 |
| 20260505094555 | 19 | 104 | 3.2 | 11.3 | 0.00 | 0.00 | 0.00 | 78 | 1000.4 |
| 20260505093053 | 20 | 93 | 0.0 | 12.9 | 0.00 | 0.00 | 0.00 | 77 | 1000.5 |
| 20260505091550 | 20 | 91 | 3.2 | 11.3 | 0.00 | 0.00 | 0.00 | 76 | 1000.4 |
| 20260505090059 | 20 | 91 | 1.6 | 9.7 | 0.00 | 0.00 | 0.00 | 75 | 1000.5 |
| 20260505084551 | 20 | 104 | 3.2 | 11.3 | 0.00 | 0.00 | 0.00 | 75 | 1000.6 |
| 20260505083055 | 20 | 101 | 3.2 | 8.0 | 0.00 | 0.00 | 0.00 | 75 | 1000.5 |
| 20260505081547 | 20 | 96 | 1.6 | 6.4 | 0.00 | 0.00 | 0.00 | 74 | 1000.8 |
| 20260505080046 | 20 | 97 | 1.6 | 9.7 | 0.00 | 0.00 | 0.00 | 74 | 1000.8 |
| 20260505074542 | 20 | 98 | 0.0 | 8.0 | 0.00 | 0.00 | 0.00 | 73 | 1001.0 |
| 20260505073041 | 20 | 96 | 0.0 | 3.2 | 0.00 | 0.00 | 0.00 | 73 | 1001.2 |
| 20260505071540 | 21 | 171 | 0.0 | 4.8 | 0.00 | 0.00 | 0.00 | 73 | 1001.5 |
| 20260505070044 | 21 | 173 | 0.0 | 0.0 | 0.00 | 0.00 | 0.00 | 73 | 1001.6 |
| 20260505064538 | 20 | 176 | 0.0 | 0.0 | 0.00 | 0.00 | 0.00 | 73 | 1001.8 |
| 20260505063040 | 20 | 175 | 0.0 | 0.0 | 0.00 | 0.00 | 0.00 | 74 | 1001.9 |
| 20260505061540 | 21 | 176 | 0.0 | 4.8 | 0.00 | 0.00 | 0.00 | 72 | 1001.6 |
| 20260505060036 | 21 | 96 | 0.0 | 6.4 | 0.00 | 0.00 | 0.00 | 72 | 1000.9 |
| 20260505054538 | 21 | 108 | 1.6 | 9.7 | 0.00 | 0.00 | 0.00 | 71 | 1001.0 |
| 20260505053040 | 21 | 103 | 0.0 | 9.7 | 0.00 | 0.00 | 0.00 | 70 | 1001.1 |
| 20260505051531 | 21 | 95 | 1.6 | 8.0 | 0.00 | 0.00 | 0.00 | 70 | 1001.5 |
| 20260505041524 | 21 | 95 | 4.8 | 20.9 | 0.00 | 0.00 | 0.00 | 66 | 1001.1 |
| 20260505040022 | 21 | 97 | 3.2 | 14.5 | 0.00 | 0.00 | 0.00 | 66 | 1001.4 |
| 20260505034521 | 21 | 98 | 4.8 | 9.7 | 0.00 | 0.00 | 0.00 | 66 | 1001.6 |
| 20260505033021 | 21 | 134 | 3.2 | 14.5 | 0.00 | 0.00 | 0.00 | 65 | 1001.8 |
| 20260505031519 | 21 | 91 | 4.8 | 14.5 | 0.00 | 0.00 | 0.00 | 64 | 1002.1 |
| 20260505030025 | 22 | 102 | 6.4 | 17.7 | 0.00 | 0.00 | 0.00 | 62 | 1002.1 |
| 20260505024517 | 22 | 94 | 3.2 | 12.9 | 0.00 | 0.00 | 0.00 | 62 | 1002.3 |
| 20260505023017 | 22 | 142 | 1.6 | 9.7 | 0.00 | 0.00 | 0.00 | 62 | 1002.3 |
| 20260505021516 | 22 | 101 | 3.2 | 12.9 | 0.00 | 0.00 | 0.00 | 61 | 1002.3 |
| 20260505020015 | 22 | 95 | 4.8 | 14.5 | 0.00 | 0.00 | 0.00 | 60 | 1002.3 |
| 20260505014516 | 22 | 93 | 6.4 | 16.1 | 0.00 | 0.00 | 0.00 | 60 | 1002.1 |
| 20260505013014 | 23 | 104 | 4.8 | 12.9 | 0.00 | 0.00 | 0.00 | 60 | 1002.2 |
| 20260505011518 | 23 | 95 | 1.6 | 8.0 | 0.00 | 0.00 | 0.00 | 59 | 1002.1 |
| 20260505010012 | 23 | 97 | 3.2 | 9.7 | 0.00 | 0.00 | 0.00 | 59 | 1002.0 |
| 20260505004528 | 24 | 98 | 0.0 | 4.8 | 0.00 | 0.00 | 0.00 | 57 | 1002.1 |
| 20260505003012 | 24 | 96 | 1.6 | 8.0 | 0.00 | 0.00 | 0.00 | 56 | 1002.1 |
| 20260505001510 | 25 | 141 | 3.2 | 9.7 | 0.00 | 0.00 | 0.00 | 55 | 1002.2 |
| 20260505000013 | 25 | 127 | 1.6 | 11.3 | 0.00 | 0.00 | 0.00 | 54 | 1002.5 |
| 20260504234508 | 25 | 133 | 1.6 | 16.1 | 0.00 | 0.00 | 0.00 | 54 | 1002.4 |
| 20260504233008 | 25 | 123 | 1.6 | 12.9 | 0.00 | 0.00 | 0.00 | 54 | 1002.4 |
| 20260504231521 | 26 | 97 | 4.8 | 17.7 | 0.00 | 0.00 | 0.00 | 53 | 1002.5 |